Flag for Germany Weather past 2 weeks in Neuwied, Rhineland-Palatinate, Germany

Now
73 °F

Broken clouds.


Feels Like: 76 °F
Forecast: 58 / 78 °F
Wind: 8 mph from Southwest

Location: Buechel

Current Time: Sep 18, 2014 at 6:40:08 PM

Latest Report: Sep 18, 2014 at 5:20 PM


Visibility: N/A

Pressure: 29.86 "Hg

Humidity: 61%

Dew point: 59 °F

Location of NeuwiedLocation

Historic Weather in Neuwied — Graph

°F

Neuwied temperature yesterday

Maximum temperature yesterday: 72 °F (at 4:20 PM)
Minimum temperature yesterday: 55 °F (at 5:20 AM)
Average temperature yesterday: 63 °F

Past Weeks' High & Low Weather Summary

 TemperatureHumidityPressure
High73 °F (Sep 18, 5:20 PM)100% (Sep 7, 4:20 AM)30.21 "Hg (Sep 7, 4:20 AM)
Low48 °F (Sep 12, 3:20 AM)52% (Sep 12, 3:20 PM)29.86 "Hg (Sep 18, 6:20 AM)
Average59 °F81%30.04 "Hg
* Reported Sep 3 5:20 PM — Sep 18 5:20 PM, Neuwied, Weather by CustomWeather, © 2014

Note: Actual official high and low records may vary slightly from our data, if they occured in-between our weather recording intervals... More about our weather records

Advertising

Neuwied weather history for previous 24 hours

 ConditionsComfort  
Time TempWeatherWind HumidityBarometerVisibility
5:20 PM
Sep 18
73 °FBroken clouds.8 mph61%29.86 "HgN/A
4:20 PM72 °FBroken clouds.10 mph61%29.89 "HgN/A
3:20 PM70 °FBroken clouds.8 mph64%29.89 "HgN/A
2:20 PM70 °FBroken clouds.7 mph73%29.89 "HgN/A
1:20 PM68 °FBroken clouds.8 mph73%29.89 "HgN/A
12:20 PM64 °FBroken clouds.7 mph83%29.92 "HgN/A
11:56 AM63 °FLight rain. Partly sunny.6 mph88%29.92 "HgN/A
11:20 AM63 °FPartly sunny.5 mph83%29.92 "HgN/A
10:20 AM63 °FPartly sunny.7 mph83%29.92 "HgN/A
9:20 AM61 °FBroken clouds.6 mph88%29.89 "HgN/A
8:20 AM61 °FBroken clouds.6 mph88%29.89 "HgN/A
7:20 AM61 °FPartly cloudy.7 mph88%29.86 "HgN/A
6:20 AM61 °FLight rain. Partly cloudy.7 mph88%29.86 "HgN/A
5:20 AM61 °FPassing clouds.6 mph83%29.89 "HgN/A
4:20 AM61 °FPassing clouds.3 mph83%29.89 "HgN/A
3:20 AM61 °FCool.5 mph83%29.89 "HgN/A
2:20 AM63 °FMild.6 mph77%29.89 "HgN/A
1:20 AM63 °FMild.6 mph77%29.89 "HgN/A
12:20 AM63 °FMild.6 mph77%29.89 "HgN/A
11:20 PM
Sep 17
63 °FMild.6 mph77%29.92 "HgN/A
10:20 PM64 °FMild.6 mph73%29.92 "HgN/A
9:20 PM64 °FMild.6 mph73%29.92 "HgN/A
8:20 PM64 °FMild.6 mph73%29.92 "HgN/A
7:20 PM68 °FMild.3 mph64%29.89 "HgN/A
6:20 PM70 °FMild.6 mph60%29.89 "HgN/A
Weather by CustomWeather, © 2014

See weather overviewHow to use our weather pages